Time,TemperatureF,DewpointF,PressureIn,WindDirection,WindDirectionDegrees,WindSpeedMPH,WindSpeedGustMPH,Humidity,HourlyPrecipIn,Conditions,Clouds,dailyrainin,SoftwareType,DateUTC
2013-05-17 00:00:00,56.5,51.7,27.08,SW,225,1.6,4.3,84,0.00,,---,0.00,VWS V14.01,2013-05-17 05:00:00,
2013-05-17 00:04:00,58.5,54.0,27.08,SE,135,4.0,4.0,85,0.00,,---,0.00,VWS V14.01,2013-05-17 05:04:00,
2013-05-17 00:09:00,58.8,54.0,27.08,SE,135,3.8,4.0,84,0.00,,---,0.00,VWS V14.01,2013-05-17 05:09:00,
2013-05-17 00:14:00,59.0,53.8,27.08,SSE,158,4.0,5.6,83,0.00,,---,0.00,VWS V14.01,2013-05-17 05:14:00,
2013-05-17 00:15:00,55.8,51.6,27.08,WNW,292,3.4,3.4,86,0.00,,---,0.00,VWS V14.01,2013-05-17 05:15:00,
2013-05-17 00:19:00,59.0,53.8,27.08,SE,135,6.3,8.7,83,0.00,,---,0.00,VWS V14.01,2013-05-17 05:19:00,
2013-05-17 00:24:00,59.0,53.5,27.08,SE,135,2.9,8.7,82,0.00,,---,0.00,VWS V14.01,2013-05-17 05:24:00,
2013-05-17 00:29:00,58.5,53.0,27.08,SE,135,3.4,8.7,82,0.00,,---,0.00,VWS V14.01,2013-05-17 05:29:00,
2013-05-17 00:30:00,55.4,52.8,27.08,NW,315,3.4,4.9,91,0.00,,---,0.00,VWS V14.01,2013-05-17 05:30:00,
2013-05-17 00:34:00,58.3,52.8,27.08,SE,135,2.5,4.0,82,0.00,,---,0.00,VWS V14.01,2013-05-17 05:34:00,
2013-05-17 00:39:00,58.1,52.6,27.08,SE,135,0.0,4.0,82,0.00,,---,0.00,VWS V14.01,2013-05-17 05:39:00,
2013-05-17 00:44:00,56.8,51.1,27.08,North,0,3.6,4.0,81,0.00,,---,0.00,VWS V14.01,2013-05-17 05:44:00,
2013-05-17 00:45:00,56.1,54.4,27.08,NW,315,3.6,6.7,94,0.00,,---,0.00,VWS V14.01,2013-05-17 05:45:00,
2013-05-17 00:49:00,56.3,51.5,27.08,NNE,22,4.0,4.3,84,0.00,,---,0.00,VWS V14.01,2013-05-17 05:49:00,
2013-05-17 00:54:00,56.7,52.2,27.08,East,90,0.9,4.3,85,0.00,,---,0.00,VWS V14.01,2013-05-17 05:54:00,
2013-05-17 00:59:00,56.7,52.2,27.08,SW,225,2.2,4.3,85,0.00,,---,0.00,VWS V14.01,2013-05-17 05:59:00,
2013-05-17 01:00:00,57.4,56.0,27.08,NW,315,7.4,9.4,95,0.00,,---,0.00,VWS V14.01,2013-05-17 06:00:00,
2013-05-17 01:04:00,55.9,51.2,27.08,SW,225,0.0,1.6,84,0.00,,---,0.00,VWS V14.01,2013-05-17 06:04:00,
2013-05-17 01:09:00,55.6,50.5,27.08,NW,315,2.0,3.4,83,0.00,,---,0.00,VWS V14.01,2013-05-17 06:09:00,
2013-05-17 01:14:00,55.6,51.5,27.08,North,0,0.9,3.4,86,0.00,,---,0.00,VWS V14.01,2013-05-17 06:14:00,
2013-05-17 01:15:00,57.6,55.6,27.08,West,270,3.8,7.8,93,0.00,,---,0.00,VWS V14.01,2013-05-17 06:15:00,
2013-05-17 01:19:00,55.6,52.1,27.08,West,270,4.9,4.9,88,0.00,,---,0.00,VWS V14.01,2013-05-17 06:19:00,
2013-05-17 01:24:00,55.0,52.2,27.08,WNW,292,2.5,4.9,90,0.00,,---,0.00,VWS V14.01,2013-05-17 06:24:00,
2013-05-17 01:29:00,55.0,52.5,27.08,WNW,292,2.2,4.9,91,0.00,,---,0.00,VWS V14.01,2013-05-17 06:29:00,
2013-05-17 01:30:00,57.4,56.0,27.08,NW,315,4.3,6.5,95,0.00,,---,0.00,VWS V14.01,2013-05-17 06:30:00,
2013-05-17 01:34:00,55.4,53.4,27.08,NNW,338,5.8,6.7,93,0.00,,---,0.00,VWS V14.01,2013-05-17 06:34:00,
2013-05-17 01:39:00,55.4,53.4,27.08,NW,315,3.4,6.7,93,0.00,,---,0.00,VWS V14.01,2013-05-17 06:39:00,
2013-05-17 01:44:00,56.1,54.4,27.08,NW,315,4.9,6.7,94,0.00,,---,0.00,VWS V14.01,2013-05-17 06:44:00,
2013-05-17 01:45:00,58.1,55.5,27.08,NW,315,7.6,7.6,91,0.00,,---,0.00,VWS V14.01,2013-05-17 06:45:00,
2013-05-17 01:49:00,56.3,54.9,27.08,NW,315,4.9,5.8,95,0.00,,---,0.00,VWS V14.01,2013-05-17 06:49:00,
2013-05-17 01:54:00,56.5,55.1,27.08,NW,315,4.9,5.8,95,0.00,,---,0.00,VWS V14.01,2013-05-17 06:54:00,
2013-05-17 01:59:00,57.2,55.8,27.08,NW,315,9.4,9.4,95,0.00,,---,0.00,VWS V14.01,2013-05-17 06:59:00,
2013-05-17 02:04:00,57.6,55.8,27.08,WNW,292,2.5,7.4,94,0.00,,---,0.00,VWS V14.01,2013-05-17 07:04:00,
2013-05-17 02:09:00,57.7,56.0,27.08,NW,315,5.8,7.4,94,0.00,,---,0.00,VWS V14.01,2013-05-17 07:09:00,
2013-05-17 02:14:00,57.6,55.6,27.08,NW,315,5.6,7.8,93,0.00,,---,0.00,VWS V14.01,2013-05-17 07:14:00,
2013-05-17 02:15:00,59.4,55.2,27.08,SW,225,5.8,8.1,86,0.00,,---,0.00,VWS V14.01,2013-05-17 07:15:00,
2013-05-17 02:19:00,57.6,55.8,27.08,NW,315,4.9,6.5,94,0.00,,---,0.00,VWS V14.01,2013-05-17 07:19:00,
2013-05-17 02:24:00,57.6,55.8,27.08,NW,315,3.1,6.5,94,0.00,,---,0.00,VWS V14.01,2013-05-17 07:24:00,
2013-05-17 02:29:00,57.4,56.0,27.08,NW,315,2.7,6.5,95,0.00,,---,0.00,VWS V14.01,2013-05-17 07:29:00,
2013-05-17 02:30:00,60.4,56.2,27.08,SW,225,7.4,15.4,86,0.00,,---,0.00,VWS V14.01,2013-05-17 07:30:00,
2013-05-17 02:34:00,57.4,55.7,27.08,WSW,248,4.0,4.3,94,0.00,,---,0.00,VWS V14.01,2013-05-17 07:34:00,
2013-05-17 02:39:00,57.7,55.7,27.08,WNW,292,4.3,7.2,93,0.00,,---,0.00,VWS V14.01,2013-05-17 07:39:00,
2013-05-17 02:44:00,57.9,55.6,27.08,West,270,5.8,7.2,92,0.00,,---,0.00,VWS V14.01,2013-05-17 07:44:00,
2013-05-17 02:45:00,61.9,56.0,27.08,SSW,202,8.7,12.3,81,0.00,,---,0.00,VWS V14.01,2013-05-17 07:45:00,
2013-05-17 02:49:00,58.5,55.2,27.08,WSW,248,6.3,8.1,89,0.00,,---,0.00,VWS V14.01,2013-05-17 07:49:00,
2013-05-17 02:54:00,59.0,55.1,27.08,West,270,6.0,8.1,87,0.00,,---,0.00,VWS V14.01,2013-05-17 07:54:00,
2013-05-17 02:59:00,59.4,54.9,27.08,WNW,292,6.5,8.1,85,0.00,,---,0.00,VWS V14.01,2013-05-17 07:59:00,
2013-05-17 03:00:00,62.8,56.5,27.08,WNW,292,6.7,14.8,80,0.00,,---,0.00,VWS V14.01,2013-05-17 08:00:00,
2013-05-17 03:04:00,59.4,54.5,27.08,West,270,5.4,8.1,84,0.00,,---,0.00,VWS V14.01,2013-05-17 08:04:00,
2013-05-17 03:09:00,59.5,54.7,27.08,WNW,292,4.0,8.1,84,0.00,,---,0.00,VWS V14.01,2013-05-17 08:09:00,
2013-05-17 03:14:00,59.5,55.0,27.08,SW,225,4.9,8.1,85,0.00,,---,0.00,VWS V14.01,2013-05-17 08:14:00,
2013-05-17 03:15:00,62.8,56.2,27.08,West,270,6.0,13.4,79,0.00,,---,0.00,VWS V14.01,2013-05-17 08:15:00,
2013-05-17 03:19:00,59.4,55.5,27.08,SW,225,9.0,12.1,87,0.00,,---,0.00,VWS V14.01,2013-05-17 08:19:00,
2013-05-17 03:24:00,60.3,56.4,27.08,SW,225,14.3,15.2,87,0.00,,---,0.00,VWS V14.01,2013-05-17 08:24:00,
2013-05-17 03:29:00,60.4,56.2,27.08,SW,225,10.1,15.4,86,0.00,,---,0.00,VWS V14.01,2013-05-17 08:29:00,
2013-05-17 03:30:00,62.2,57.0,27.08,NW,315,7.6,10.7,83,0.00,,---,0.00,VWS V14.01,2013-05-17 08:30:00,
2013-05-17 03:34:00,60.8,56.6,27.08,SSW,202,9.8,10.5,86,0.00,,---,0.00,VWS V14.01,2013-05-17 08:34:00,
2013-05-17 03:39:00,61.3,56.5,27.08,SW,225,8.5,10.5,84,0.00,,---,0.00,VWS V14.01,2013-05-17 08:39:00,
2013-05-17 03:44:00,62.1,56.2,27.08,South,180,10.3,12.3,81,0.00,,---,0.00,VWS V14.01,2013-05-17 08:44:00,
2013-05-17 03:45:00,62.6,57.4,27.08,SW,225,12.1,12.5,83,0.00,,---,0.00,VWS V14.01,2013-05-17 08:45:00,
2013-05-17 03:49:00,62.2,56.0,27.08,SSW,202,7.8,14.8,80,0.00,,---,0.00,VWS V14.01,2013-05-17 08:49:00,
2013-05-17 03:54:00,62.6,56.0,27.08,SSW,202,7.4,14.8,79,0.00,,---,0.00,VWS V14.01,2013-05-17 08:54:00,
2013-05-17 03:59:00,63.0,55.7,27.08,WSW,248,8.1,14.8,77,0.00,,---,0.00,VWS V14.01,2013-05-17 08:59:00,
2013-05-17 04:00:00,62.8,57.2,27.08,SW,225,6.0,13.2,82,0.00,,---,0.00,VWS V14.01,2013-05-17 09:00:00,
2013-05-17 04:04:00,63.0,56.3,27.08,SW,225,8.1,10.3,79,0.00,,---,0.00,VWS V14.01,2013-05-17 09:04:00,
2013-05-17 04:09:00,63.1,56.2,27.08,SW,225,8.5,13.4,78,0.00,,---,0.00,VWS V14.01,2013-05-17 09:09:00,
2013-05-17 04:13:00,62.8,56.2,27.08,NW,315,3.8,13.4,79,0.00,,---,0.00,VWS V14.01,2013-05-17 09:13:00,
2013-05-17 04:15:00,62.2,57.0,27.08,West,270,10.1,15.7,83,0.00,,---,0.00,VWS V14.01,2013-05-17 09:15:00,
2013-05-17 04:18:00,62.6,56.3,27.08,NW,315,7.8,10.5,80,0.00,,---,0.00,VWS V14.01,2013-05-17 09:18:00,
2013-05-17 04:23:00,62.4,56.9,27.08,WNW,292,7.8,10.7,82,0.00,,---,0.00,VWS V14.01,2013-05-17 09:23:00,
2013-05-17 04:28:00,62.2,57.0,27.08,West,270,7.4,10.7,83,0.00,,---,0.00,VWS V14.01,2013-05-17 09:28:00,
2013-05-17 04:30:00,61.9,56.7,27.08,SW,225,9.6,12.1,83,0.00,,---,0.00,VWS V14.01,2013-05-17 09:30:00,
2013-05-17 04:33:00,62.2,57.0,27.08,WNW,292,6.3,8.5,83,0.00,,---,0.00,VWS V14.01,2013-05-17 09:33:00,
2013-05-17 04:38:00,62.4,57.2,27.08,West,270,5.6,12.1,83,0.00,,---,0.00,VWS V14.01,2013-05-17 09:38:00,
2013-05-17 04:43:00,62.6,57.4,27.08,SW,225,5.6,12.1,83,0.00,,---,0.00,VWS V14.01,2013-05-17 09:43:00,
2013-05-17 04:45:00,61.0,56.4,27.08,WNW,292,5.4,12.1,85,0.00,,---,0.00,VWS V14.01,2013-05-17 09:45:00,
2013-05-17 04:48:00,63.0,57.4,27.08,South,180,9.8,12.5,82,0.00,,---,0.00,VWS V14.01,2013-05-17 09:48:00,
2013-05-17 04:53:00,63.0,57.4,27.08,WNW,292,6.0,13.2,82,0.00,,---,0.00,VWS V14.01,2013-05-17 09:53:00,
2013-05-17 04:58:00,62.8,57.2,27.08,SW,225,8.1,13.2,82,0.00,,---,0.00,VWS V14.01,2013-05-17 09:58:00,
2013-05-17 05:00:00,60.4,56.6,27.08,SW,225,8.5,10.5,87,0.00,,---,0.00,VWS V14.01,2013-05-17 10:00:00,
2013-05-17 05:03:00,62.6,57.0,27.08,WSW,248,7.8,11.0,82,0.00,,---,0.00,VWS V14.01,2013-05-17 10:03:00,
2013-05-17 05:08:00,62.4,57.2,27.08,West,270,10.3,12.8,83,0.00,,---,0.00,VWS V14.01,2013-05-17 10:08:00,
2013-05-17 05:13:00,62.2,57.0,27.08,SW,225,10.5,15.7,83,0.00,,---,0.00,VWS V14.01,2013-05-17 10:13:00,
2013-05-17 05:15:00,59.4,56.1,27.08,SW,225,2.5,8.5,89,0.00,,---,0.00,VWS V14.01,2013-05-17 10:15:00,
2013-05-17 05:18:00,62.2,57.0,27.08,SW,225,8.1,11.2,83,0.00,,---,0.00,VWS V14.01,2013-05-17 10:18:00,
2013-05-17 05:23:00,62.2,57.0,27.08,WSW,248,7.6,11.2,83,0.00,,---,0.00,VWS V14.01,2013-05-17 10:23:00,
2013-05-17 05:28:00,62.1,56.8,27.08,West,270,5.6,12.1,83,0.00,,---,0.00,VWS V14.01,2013-05-17 10:28:00,
2013-05-17 05:30:00,58.8,56.2,27.08,NW,315,1.6,4.3,91,0.00,,---,0.00,VWS V14.01,2013-05-17 10:30:00,
2013-05-17 05:33:00,61.7,56.5,27.08,NW,315,9.4,10.1,83,0.00,,---,0.00,VWS V14.01,2013-05-17 10:33:00,
2013-05-17 05:38:00,61.5,56.7,27.08,SSW,202,10.1,10.7,84,0.00,,---,0.00,VWS V14.01,2013-05-17 10:38:00,
2013-05-17 05:43:00,61.2,56.3,27.08,WNW,292,6.5,12.1,84,0.00,,---,0.00,VWS V14.01,2013-05-17 10:43:00,
2013-05-17 05:45:00,59.2,56.2,27.08,West,270,5.6,6.5,90,0.00,,---,0.00,VWS V14.01,2013-05-17 10:45:00,
2013-05-17 05:48:00,61.0,56.5,27.08,West,270,6.9,10.5,85,0.00,,---,0.00,VWS V14.01,2013-05-17 10:48:00,
2013-05-17 05:53:00,60.6,56.4,27.08,West,270,7.6,10.5,86,0.00,,---,0.00,VWS V14.01,2013-05-17 10:53:00,
2013-05-17 05:58:00,60.4,56.6,27.08,SW,225,6.0,10.5,87,0.00,,---,0.00,VWS V14.01,2013-05-17 10:58:00,
2013-05-17 06:00:00,58.3,55.1,27.08,NW,315,5.6,6.3,89,0.00,,---,0.00,VWS V14.01,2013-05-17 11:00:00,
2013-05-17 06:03:00,60.3,56.4,27.08,SW,225,6.0,8.5,87,0.00,,---,0.00,VWS V14.01,2013-05-17 11:03:00,
2013-05-17 06:08:00,60.1,56.2,27.08,SW,225,3.8,8.5,87,0.00,,---,0.00,VWS V14.01,2013-05-17 11:08:00,
2013-05-17 06:13:00,59.7,56.5,27.08,SW,225,3.8,8.5,89,0.00,,---,0.00,VWS V14.01,2013-05-17 11:13:00,
2013-05-17 06:15:00,59.2,56.9,27.08,West,270,7.6,10.3,92,0.00,,---,0.00,VWS V14.01,2013-05-17 11:15:00,
2013-05-17 06:18:00,59.2,56.0,27.08,SSW,202,3.4,4.3,89,0.00,,---,0.00,VWS V14.01,2013-05-17 11:18:00,
2013-05-17 06:23:00,59.0,55.8,27.08,WSW,248,4.0,4.3,89,0.00,,---,0.00,VWS V14.01,2013-05-17 11:23:00,
2013-05-17 06:28:00,58.8,56.2,27.08,West,270,2.7,4.3,91,0.00,,---,0.00,VWS V14.01,2013-05-17 11:28:00,
2013-05-17 06:30:00,61.2,56.6,27.08,NW,315,5.4,9.0,85,0.00,,---,0.00,VWS V14.01,2013-05-17 11:30:00,
2013-05-17 06:33:00,58.6,56.0,27.08,WSW,248,2.9,3.1,91,0.00,,---,0.00,VWS V14.01,2013-05-17 11:33:00,
2013-05-17 06:38:00,58.5,55.8,27.08,WSW,248,2.7,3.8,91,0.00,,---,0.00,VWS V14.01,2013-05-17 11:38:00,
2013-05-17 06:43:00,59.0,56.4,27.08,West,270,5.4,5.6,91,0.00,,---,0.00,VWS V14.01,2013-05-17 11:43:00,
2013-05-17 06:45:00,64.0,57.4,27.08,West,270,6.0,9.0,79,0.00,,---,0.00,VWS V14.01,2013-05-17 11:45:00,
2013-05-17 06:48:00,59.2,56.2,27.08,West,270,5.8,5.8,90,0.00,,---,0.00,VWS V14.01,2013-05-17 11:48:00,
2013-05-17 06:53:00,58.6,54.8,27.08,West,270,4.9,5.8,87,0.00,,---,0.00,VWS V14.01,2013-05-17 11:53:00,
2013-05-17 06:58:00,58.3,55.1,27.08,NW,315,4.3,6.3,89,0.00,,---,0.00,VWS V14.01,2013-05-17 11:58:00,
2013-05-17 07:00:00,66.0,57.5,27.08,NW,315,3.8,8.7,74,0.00,,---,0.00,VWS V14.01,2013-05-17 12:00:00,
2013-05-17 07:03:00,58.1,54.9,27.08,NW,315,4.3,8.1,89,0.00,,---,0.00,VWS V14.01,2013-05-17 12:03:00,
2013-05-17 07:08:00,58.1,55.5,27.08,West,270,5.8,8.7,91,0.00,,---,0.00,VWS V14.01,2013-05-17 12:08:00,
2013-05-17 07:13:00,59.0,56.7,27.08,West,270,10.3,10.3,92,0.00,,---,0.00,VWS V14.01,2013-05-17 12:13:00,
2013-05-17 07:15:00,68.2,58.0,27.08,SE,135,3.6,10.1,70,0.00,,---,0.00,VWS V14.01,2013-05-17 12:15:00,
2013-05-17 07:18:00,59.4,56.4,27.08,West,270,7.4,9.0,90,0.00,,---,0.00,VWS V14.01,2013-05-17 12:18:00,
2013-05-17 07:23:00,59.7,56.5,27.08,West,270,7.8,9.0,89,0.00,,---,0.00,VWS V14.01,2013-05-17 12:23:00,
2013-05-17 07:28:00,60.4,56.9,27.08,West,270,7.8,9.0,88,0.00,,---,0.00,VWS V14.01,2013-05-17 12:28:00,
2013-05-17 07:30:00,68.9,57.9,27.08,West,270,5.4,8.5,68,0.00,,---,0.00,VWS V14.01,2013-05-17 12:30:00,
2013-05-17 07:33:00,61.7,56.8,27.08,West,270,5.6,9.0,84,0.00,,---,0.00,VWS V14.01,2013-05-17 12:33:00,
2013-05-17 07:38:00,62.4,57.2,27.08,NW,315,5.4,9.0,83,0.00,,---,0.00,VWS V14.01,2013-05-17 12:38:00,
2013-05-17 07:43:00,63.5,56.9,27.08,West,270,6.5,9.0,79,0.00,,---,0.00,VWS V14.01,2013-05-17 12:43:00,
2013-05-17 07:45:00,70.5,59.5,27.08,West,270,5.4,10.3,68,0.00,,---,0.00,VWS V14.01,2013-05-17 12:45:00,
2013-05-17 07:48:00,64.2,57.2,27.08,West,270,7.4,7.4,78,0.00,,---,0.00,VWS V14.01,2013-05-17 12:48:00,
2013-05-17 07:53:00,65.3,57.5,27.08,West,270,5.8,8.1,76,0.00,,---,0.00,VWS V14.01,2013-05-17 12:53:00,
2013-05-17 07:58:00,66.0,57.5,27.08,NW,315,3.8,8.7,74,0.00,,---,0.00,VWS V14.01,2013-05-17 12:58:00,
2013-05-17 08:00:00,72.1,60.2,27.08,South,180,6.0,9.2,66,0.00,,---,0.00,VWS V14.01,2013-05-17 13:00:00,
2013-05-17 08:03:00,66.7,57.8,27.08,WNW,292,4.9,5.8,73,0.00,,---,0.00,VWS V14.01,2013-05-17 13:03:00,
2013-05-17 08:08:00,67.5,58.1,27.08,West,270,5.6,10.1,72,0.00,,---,0.00,VWS V14.01,2013-05-17 13:08:00,
2013-05-17 08:13:00,68.0,57.9,27.08,West,270,5.8,10.1,70,0.00,,---,0.00,VWS V14.01,2013-05-17 13:13:00,
2013-05-17 08:15:00,75.6,59.8,27.08,WSW,248,5.6,9.6,58,0.00,,---,0.00,VWS V14.01,2013-05-17 13:15:00,
2013-05-17 08:18:00,68.5,58.4,27.08,SW,225,4.0,6.0,70,0.00,,---,0.00,VWS V14.01,2013-05-17 13:18:00,
2013-05-17 08:23:00,69.3,57.8,27.08,SW,225,5.8,8.5,67,0.00,,---,0.00,VWS V14.01,2013-05-17 13:23:00,
2013-05-17 08:28:00,69.3,58.3,27.08,NW,315,4.9,8.5,68,0.00,,---,0.00,VWS V14.01,2013-05-17 13:28:00,
2013-05-17 08:30:00,76.3,59.5,27.08,SW,225,6.5,8.7,56,0.00,,---,0.00,VWS V14.01,2013-05-17 13:30:00,
2013-05-17 08:33:00,68.4,57.8,27.08,WNW,292,2.7,6.3,69,0.00,,---,0.00,VWS V14.01,2013-05-17 13:33:00,
2013-05-17 08:38:00,69.4,59.2,27.08,SW,225,5.8,6.3,70,0.00,,---,0.00,VWS V14.01,2013-05-17 13:38:00,
2013-05-17 08:43:00,70.5,59.5,27.08,West,270,7.6,10.3,68,0.00,,---,0.00,VWS V14.01,2013-05-17 13:43:00,
2013-05-17 08:45:00,77.5,58.5,27.08,South,180,3.6,9.8,52,0.00,,---,0.00,VWS V14.01,2013-05-17 13:45:00,
2013-05-17 08:48:00,70.9,59.4,27.08,SW,225,8.1,9.2,67,0.00,,---,0.00,VWS V14.01,2013-05-17 13:48:00,
2013-05-17 08:53:00,71.6,59.7,27.08,NW,315,5.6,9.2,66,0.00,,---,0.00,VWS V14.01,2013-05-17 13:53:00,
2013-05-17 08:58:00,72.0,60.0,27.08,South,180,5.6,9.2,66,0.00,,---,0.00,VWS V14.01,2013-05-17 13:58:00,
2013-05-17 09:00:00,79.7,58.9,27.08,SW,225,3.4,7.8,49,0.00,,---,0.00,VWS V14.01,2013-05-17 14:00:00,
2013-05-17 09:03:00,72.5,60.5,27.08,SSE,158,3.8,9.6,66,0.00,,---,0.00,VWS V14.01,2013-05-17 14:03:00,
2013-05-17 09:08:00,74.5,60.6,27.08,SW,225,3.8,9.6,62,0.00,,---,0.00,VWS V14.01,2013-05-17 14:08:00,
2013-05-17 09:13:00,75.4,60.1,27.08,SW,225,5.6,9.6,59,0.00,,---,0.00,VWS V14.01,2013-05-17 14:13:00,
2013-05-17 09:15:00,79.3,58.0,27.08,South,180,12.5,12.5,48,0.00,,---,0.00,VWS V14.01,2013-05-17 14:15:00,
2013-05-17 09:18:00,75.6,59.8,27.08,SW,225,4.9,7.6,58,0.00,,---,0.00,VWS V14.01,2013-05-17 14:18:00,
2013-05-17 09:23:00,75.4,59.1,27.08,South,180,2.5,8.7,57,0.00,,---,0.00,VWS V14.01,2013-05-17 14:23:00,
2013-05-17 09:28:00,76.5,59.1,27.08,SSW,202,3.4,8.7,55,0.00,,---,0.00,VWS V14.01,2013-05-17 14:28:00,
2013-05-17 09:30:00,80.2,58.2,27.08,South,180,8.5,14.3,47,0.00,,---,0.00,VWS V14.01,2013-05-17 14:30:00,
2013-05-17 09:33:00,76.3,58.9,27.08,South,180,8.7,9.8,55,0.00,,---,0.00,VWS V14.01,2013-05-17 14:33:00,
2013-05-17 09:38:00,76.6,58.8,27.08,South,180,4.0,9.8,54,0.00,,---,0.00,VWS V14.01,2013-05-17 14:38:00,
2013-05-17 09:43:00,77.4,58.4,27.08,SSW,202,7.6,9.8,52,0.00,,---,0.00,VWS V14.01,2013-05-17 14:43:00,
2013-05-17 09:45:00,81.7,58.3,27.08,South,180,6.3,11.0,45,0.00,,---,0.00,VWS V14.01,2013-05-17 14:45:00,
2013-05-17 09:48:00,78.4,59.4,27.08,SE,135,4.9,6.3,52,0.00,,---,0.00,VWS V14.01,2013-05-17 14:48:00,
2013-05-17 09:53:00,79.2,59.5,27.08,SW,225,3.1,7.4,51,0.00,,---,0.00,VWS V14.01,2013-05-17 14:53:00,
2013-05-17 09:58:00,79.2,59.5,27.08,SW,225,5.6,7.8,51,0.00,,---,0.00,VWS V14.01,2013-05-17 14:58:00,
2013-05-17 10:03:00,80.2,59.9,27.08,SW,225,5.4,7.2,50,0.00,,---,0.00,VWS V14.01,2013-05-17 15:03:00,
2013-05-17 10:08:00,79.9,58.5,27.08,South,180,6.5,8.7,48,0.00,,---,0.00,VWS V14.01,2013-05-17 15:08:00,
2013-05-17 10:13:00,79.0,57.6,27.08,South,180,7.2,10.7,48,0.00,,---,0.00,VWS V14.01,2013-05-17 15:13:00,
2013-05-17 10:15:00,83.5,58.0,27.08,SW,225,9.8,14.8,42,0.00,,---,0.00,VWS V14.01,2013-05-17 15:15:00,
2013-05-17 10:18:00,79.5,58.1,27.08,SW,225,6.5,12.5,48,0.00,,---,0.00,VWS V14.01,2013-05-17 15:18:00,
2013-05-17 10:23:00,79.7,58.3,27.08,South,180,10.3,14.3,48,0.00,,---,0.00,VWS V14.01,2013-05-17 15:23:00,
2013-05-17 10:28:00,80.4,59.0,27.08,South,180,8.7,14.3,48,0.00,,---,0.00,VWS V14.01,2013-05-17 15:28:00,
2013-05-17 10:30:00,83.8,57.0,27.08,South,180,10.5,14.5,40,0.00,,---,0.00,VWS V14.01,2013-05-17 15:30:00,
2013-05-17 10:33:00,80.6,57.9,27.08,SW,225,5.8,11.0,46,0.00,,---,0.00,VWS V14.01,2013-05-17 15:33:00,
2013-05-17 10:38:00,80.8,58.1,27.08,SW,225,6.5,11.0,46,0.00,,---,0.00,VWS V14.01,2013-05-17 15:38:00,
2013-05-17 10:43:00,81.5,58.8,27.08,SW,225,8.7,11.0,46,0.00,,---,0.00,VWS V14.01,2013-05-17 15:43:00,
2013-05-17 10:45:00,85.5,58.4,27.08,SSW,202,8.5,13.9,40,0.00,,---,0.00,VWS V14.01,2013-05-17 15:45:00,
2013-05-17 10:48:00,81.7,57.7,27.08,South,180,12.3,12.3,44,0.00,,---,0.00,VWS V14.01,2013-05-17 15:48:00,
2013-05-17 10:53:00,81.5,57.5,27.08,SW,225,7.8,13.0,44,0.00,,---,0.00,VWS V14.01,2013-05-17 15:53:00,
2013-05-17 10:58:00,81.7,57.7,27.08,South,180,13.0,13.0,44,0.00,,---,0.00,VWS V14.01,2013-05-17 15:58:00,
2013-05-17 11:00:00,85.6,57.1,27.08,South,180,13.4,18.8,38,0.00,,---,0.00,VWS V14.01,2013-05-17 16:00:00,
2013-05-17 11:03:00,82.4,57.7,27.08,South,180,6.5,13.0,43,0.00,,---,0.00,VWS V14.01,2013-05-17 16:03:00,
2013-05-17 11:08:00,82.8,57.3,27.08,SW,225,7.8,13.0,42,0.00,,---,0.00,VWS V14.01,2013-05-17 16:08:00,
2013-05-17 11:13:00,83.8,58.3,27.08,South,180,10.7,13.0,42,0.00,,---,0.00,VWS V14.01,2013-05-17 16:13:00,
2013-05-17 11:15:00,86.0,56.7,27.08,South,180,15.2,19.2,37,0.00,,---,0.00,VWS V14.01,2013-05-17 16:15:00,
2013-05-17 11:18:00,83.3,57.2,27.08,SE,135,12.5,12.5,41,0.00,,---,0.00,VWS V14.01,2013-05-17 16:18:00,
2013-05-17 11:23:00,84.2,57.3,27.08,SSW,202,7.4,13.4,40,0.00,,---,0.00,VWS V14.01,2013-05-17 16:23:00,
2013-05-17 11:28:00,83.8,56.3,27.08,SW,225,10.3,14.5,39,0.00,,---,0.00,VWS V14.01,2013-05-17 16:28:00,
2013-05-17 11:30:00,86.9,56.8,27.08,SE,135,12.8,18.8,36,0.00,,---,0.00,VWS V14.01,2013-05-17 16:30:00,
2013-05-17 11:33:00,84.0,57.1,27.08,SW,225,13.2,13.9,40,0.00,,---,0.00,VWS V14.01,2013-05-17 16:33:00,
2013-05-17 11:38:00,84.7,57.8,27.08,SW,225,8.1,13.9,40,0.00,,---,0.00,VWS V14.01,2013-05-17 16:38:00,
2013-05-17 11:43:00,85.8,58.0,27.08,South,180,8.5,13.9,39,0.00,,---,0.00,VWS V14.01,2013-05-17 16:43:00,
2013-05-17 11:45:00,88.3,57.2,27.08,South,180,7.8,15.2,35,0.00,,---,0.00,VWS V14.01,2013-05-17 16:45:00,
2013-05-17 11:48:00,85.6,57.9,27.08,SW,225,12.3,12.5,39,0.00,,---,0.00,VWS V14.01,2013-05-17 16:48:00,
2013-05-17 11:53:00,85.8,58.7,27.08,SW,225,8.1,13.0,40,0.00,,---,0.00,VWS V14.01,2013-05-17 16:53:00,
2013-05-17 11:58:00,86.0,56.7,27.08,South,180,12.5,15.2,37,0.00,,---,0.00,VWS V14.01,2013-05-17 16:58:00,
2013-05-17 12:00:00,88.2,56.3,27.08,SSW,202,6.5,19.5,34,0.00,,---,0.00,VWS V14.01,2013-05-17 17:00:00,
2013-05-17 12:03:00,85.6,57.1,27.08,South,180,15.2,15.2,38,0.00,,---,0.00,VWS V14.01,2013-05-17 17:03:00,
2013-05-17 12:08:00,85.8,58.0,27.08,SE,135,13.2,15.4,39,0.00,,---,0.00,VWS V14.01,2013-05-17 17:08:00,
2013-05-17 12:13:00,85.8,56.6,27.08,South,180,10.7,19.2,37,0.00,,---,0.00,VWS V14.01,2013-05-17 17:13:00,
2013-05-17 12:15:00,88.5,55.8,27.08,SE,135,10.7,20.6,33,0.00,,---,0.00,VWS V14.01,2013-05-17 17:15:00,
2013-05-17 12:18:00,86.4,56.3,27.08,SSE,158,13.0,15.2,36,0.00,,---,0.00,VWS V14.01,2013-05-17 17:18:00,
2013-05-17 12:23:00,86.4,56.3,27.08,South,180,12.8,15.4,36,0.00,,---,0.00,VWS V14.01,2013-05-17 17:23:00,
2013-05-17 12:28:00,87.1,56.9,27.08,South,180,8.1,15.4,36,0.00,,---,0.00,VWS V14.01,2013-05-17 17:28:00,
2013-05-17 12:30:00,88.0,54.5,27.08,South,180,14.3,22.2,32,0.00,,---,0.00,VWS V14.01,2013-05-17 17:30:00,
2013-05-17 12:33:00,87.1,56.1,27.08,South,180,8.5,13.0,35,0.00,,---,0.00,VWS V14.01,2013-05-17 17:33:00,
2013-05-17 12:38:00,87.3,57.1,27.08,South,180,11.0,15.2,36,0.00,,---,0.00,VWS V14.01,2013-05-17 17:38:00,
2013-05-17 12:43:00,87.1,56.1,27.08,South,180,11.0,15.2,35,0.00,,---,0.00,VWS V14.01,2013-05-17 17:43:00,
2013-05-17 12:45:00,88.0,54.5,27.08,South,180,17.7,22.2,32,0.00,,---,0.00,VWS V14.01,2013-05-17 17:45:00,
2013-05-17 12:48:00,88.5,56.6,27.08,South,180,19.5,19.5,34,0.00,,---,0.00,VWS V14.01,2013-05-17 17:48:00,
2013-05-17 12:53:00,88.2,56.3,27.08,SE,135,11.0,19.5,34,0.00,,---,0.00,VWS V14.01,2013-05-17 17:53:00,
2013-05-17 12:58:00,88.2,56.3,27.08,South,180,11.2,19.5,34,0.00,,---,0.00,VWS V14.01,2013-05-17 17:58:00,
2013-05-17 13:00:00,89.1,54.5,27.08,South,180,14.3,24.2,31,0.00,,---,0.00,VWS V14.01,2013-05-17 18:00:00,
2013-05-17 13:03:00,88.2,56.3,27.08,South,180,10.1,12.3,34,0.00,,---,0.00,VWS V14.01,2013-05-17 18:03:00,
2013-05-17 13:08:00,87.4,55.7,27.08,South,180,13.0,14.5,34,0.00,,---,0.00,VWS V14.01,2013-05-17 18:08:00,
2013-05-17 13:13:00,88.0,55.3,27.08,South,180,10.1,20.6,33,0.00,,---,0.00,VWS V14.01,2013-05-17 18:13:00,
2013-05-17 13:15:00,89.6,55.0,27.08,SE,135,9.2,24.4,31,0.00,,---,0.00,VWS V14.01,2013-05-17 18:15:00,
2013-05-17 13:18:00,87.6,55.0,27.08,SSE,158,17.5,17.7,33,0.00,,---,0.00,VWS V14.01,2013-05-17 18:18:00,
2013-05-17 13:23:00,88.3,55.6,27.08,SSE,158,15.2,22.2,33,0.00,,---,0.00,VWS V14.01,2013-05-17 18:23:00,
2013-05-17 13:28:00,88.2,54.6,27.08,SE,135,20.6,22.2,32,0.00,,---,0.00,VWS V14.01,2013-05-17 18:28:00,
2013-05-17 13:30:00,88.9,54.4,27.08,SE,135,23.0,27.7,31,0.00,,---,0.00,VWS V14.01,2013-05-17 18:30:00,
2013-05-17 13:33:00,87.8,54.3,27.08,SE,135,12.3,16.3,32,0.00,,---,0.00,VWS V14.01,2013-05-17 18:33:00,
2013-05-17 13:38:00,88.9,55.2,27.08,SE,135,14.1,19.5,32,0.00,,---,0.00,VWS V14.01,2013-05-17 18:38:00,
2013-05-17 13:43:00,88.7,55.1,27.08,South,180,10.1,22.2,32,0.00,,---,0.00,VWS V14.01,2013-05-17 18:43:00,
2013-05-17 13:45:00,90.0,55.3,27.08,SSE,158,15.4,25.1,31,0.00,,---,0.00,VWS V14.01,2013-05-17 18:45:00,
2013-05-17 13:48:00,89.1,55.4,27.08,SE,135,17.5,17.7,32,0.00,,---,0.00,VWS V14.01,2013-05-17 18:48:00,
2013-05-17 13:53:00,89.4,54.8,27.08,SSE,158,19.2,24.2,31,0.00,,---,0.00,VWS V14.01,2013-05-17 18:53:00,
2013-05-17 13:58:00,89.4,54.8,27.08,SE,135,14.3,24.2,31,0.00,,---,0.00,VWS V14.01,2013-05-17 18:58:00,
2013-05-17 14:00:00,88.9,54.4,27.08,SE,135,25.3,28.9,31,0.00,,---,0.00,VWS V14.01,2013-05-17 19:00:00,
2013-05-17 14:03:00,89.2,54.7,27.08,SSE,158,18.6,18.6,31,0.00,,---,0.00,VWS V14.01,2013-05-17 19:03:00,
2013-05-17 14:08:00,88.9,54.4,27.08,South,180,10.5,22.8,31,0.00,,---,0.00,VWS V14.01,2013-05-17 19:08:00,
2013-05-17 14:13:00,89.8,55.1,27.08,SSE,158,17.9,24.4,31,0.00,,---,0.00,VWS V14.01,2013-05-17 19:13:00,
2013-05-17 14:15:00,89.2,54.7,27.08,SE,135,15.9,27.1,31,0.00,,---,0.00,VWS V14.01,2013-05-17 19:15:00,
2013-05-17 14:18:00,89.1,54.5,27.08,SE,135,17.5,26.9,31,0.00,,---,0.00,VWS V14.01,2013-05-17 19:18:00,
2013-05-17 14:23:00,88.9,53.5,27.08,SE,135,27.7,27.7,30,0.00,,---,0.00,VWS V14.01,2013-05-17 19:23:00,
2013-05-17 14:28:00,88.3,53.9,27.08,SSE,158,15.9,27.7,31,0.00,,---,0.00,VWS V14.01,2013-05-17 19:28:00,
2013-05-17 14:30:00,89.1,53.6,27.08,South,180,15.2,26.9,30,0.00,,---,0.00,VWS V14.01,2013-05-17 19:30:00,
2013-05-17 14:33:00,88.9,54.4,27.08,SE,135,13.6,23.0,31,0.00,,---,0.00,VWS V14.01,2013-05-17 19:33:00,
2013-05-17 14:38:00,89.1,54.5,27.08,SE,135,19.0,25.1,31,0.00,,---,0.00,VWS V14.01,2013-05-17 19:38:00,
2013-05-17 14:43:00,90.0,55.3,27.08,SE,135,15.4,25.1,31,0.00,,---,0.00,VWS V14.01,2013-05-17 19:43:00,
2013-05-17 14:45:00,88.9,53.5,27.08,South,180,17.0,28.9,30,0.00,,---,0.00,VWS V14.01,2013-05-17 19:45:00,
2013-05-17 14:48:00,89.8,55.1,27.08,SE,135,17.7,23.5,31,0.00,,---,0.00,VWS V14.01,2013-05-17 19:48:00,
2013-05-17 14:53:00,88.7,55.1,27.08,South,180,19.9,28.9,32,0.00,,---,0.00,VWS V14.01,2013-05-17 19:53:00,
2013-05-17 14:58:00,89.2,55.5,27.08,SSE,158,17.2,28.9,32,0.00,,---,0.00,VWS V14.01,2013-05-17 19:58:00,
2013-05-17 15:00:00,89.2,53.8,27.08,South,180,22.6,26.2,30,0.00,,---,0.00,VWS V14.01,2013-05-17 20:00:00,
2013-05-17 15:03:00,88.2,53.7,27.08,SSE,158,10.7,25.3,31,0.00,,---,0.00,VWS V14.01,2013-05-17 20:03:00,
2013-05-17 15:08:00,89.4,54.8,27.08,SSE,158,22.6,25.3,31,0.00,,---,0.00,VWS V14.01,2013-05-17 20:08:00,
2013-05-17 15:13:00,89.1,54.5,27.08,SSE,158,14.5,27.1,31,0.00,,---,0.00,VWS V14.01,2013-05-17 20:13:00,
2013-05-17 15:15:00,89.1,54.5,27.08,SSE,158,23.5,26.6,31,0.00,,---,0.00,VWS V14.01,2013-05-17 20:15:00,
2013-05-17 15:18:00,89.4,54.8,27.08,SE,135,19.5,19.5,31,0.00,,---,0.00,VWS V14.01,2013-05-17 20:18:00,
2013-05-17 15:23:00,89.4,53.9,27.08,South,180,15.4,24.6,30,0.00,,---,0.00,VWS V14.01,2013-05-17 20:23:00,
2013-05-17 15:28:00,89.1,53.6,27.08,SSE,158,17.2,26.9,30,0.00,,---,0.00,VWS V14.01,2013-05-17 20:28:00,
2013-05-17 15:30:00,88.9,53.5,27.08,SSE,158,19.5,27.3,30,0.00,,---,0.00,VWS V14.01,2013-05-17 20:30:00,
2013-05-17 15:33:00,90.0,53.5,27.08,SE,135,15.2,23.7,29,0.00,,---,0.00,VWS V14.01,2013-05-17 20:33:00,
2013-05-17 15:38:00,88.7,53.3,27.08,SSE,158,19.9,28.9,30,0.00,,---,0.00,VWS V14.01,2013-05-17 20:38:00,
2013-05-17 15:43:00,89.1,53.6,27.08,SSE,158,23.5,28.9,30,0.00,,---,0.00,VWS V14.01,2013-05-17 20:43:00,
2013-05-17 15:45:00,88.0,52.7,27.08,SSE,158,20.4,26.4,30,0.00,,---,0.00,VWS V14.01,2013-05-17 20:45:00,
2013-05-17 15:48:00,89.6,53.2,27.08,South,180,19.7,26.2,29,0.00,,---,0.00,VWS V14.01,2013-05-17 20:48:00,
2013-05-17 15:53:00,89.4,53.0,27.08,South,180,19.9,26.2,29,0.00,,---,0.00,VWS V14.01,2013-05-17 20:53:00,
2013-05-17 15:58:00,88.9,53.5,27.08,SE,135,19.0,26.2,30,0.00,,---,0.00,VWS V14.01,2013-05-17 20:58:00,
2013-05-17 16:00:00,87.3,53.0,27.08,South,180,17.0,28.9,31,0.00,,---,0.00,VWS V14.01,2013-05-17 21:00:00,
2013-05-17 16:03:00,89.2,53.8,27.08,South,180,21.0,26.2,30,0.00,,---,0.00,VWS V14.01,2013-05-17 21:03:00,
2013-05-17 16:08:00,89.4,53.9,27.08,SSE,158,17.2,26.4,30,0.00,,---,0.00,VWS V14.01,2013-05-17 21:08:00,
2013-05-17 16:13:00,89.2,54.7,27.08,SE,135,17.2,26.6,31,0.00,,---,0.00,VWS V14.01,2013-05-17 21:13:00,
2013-05-17 16:15:00,87.6,53.3,27.08,SSE,158,23.3,29.3,31,0.00,,---,0.00,VWS V14.01,2013-05-17 21:15:00,
2013-05-17 16:18:00,88.9,54.4,27.08,SSE,158,15.2,23.5,31,0.00,,---,0.00,VWS V14.01,2013-05-17 21:18:00,
2013-05-17 16:23:00,88.9,54.4,27.08,SE,135,17.5,27.3,31,0.00,,---,0.00,VWS V14.01,2013-05-17 21:23:00,
2013-05-17 16:28:00,89.6,54.1,27.08,South,180,23.5,27.3,30,0.00,,---,0.00,VWS V14.01,2013-05-17 21:28:00,
2013-05-17 16:30:00,86.9,52.7,27.08,SSE,158,28.4,32.9,31,0.00,,---,0.00,VWS V14.01,2013-05-17 21:30:00,
2013-05-17 16:33:00,88.7,53.3,27.08,South,180,24.2,24.2,30,0.00,,---,0.00,VWS V14.01,2013-05-17 21:33:00,
2013-05-17 16:38:00,88.5,53.2,27.08,SE,135,19.7,24.2,30,0.00,,---,0.00,VWS V14.01,2013-05-17 21:38:00,
2013-05-17 16:43:00,88.2,52.8,27.08,South,180,19.9,26.4,30,0.00,,---,0.00,VWS V14.01,2013-05-17 21:43:00,
2013-05-17 16:45:00,87.3,52.1,27.08,SE,135,17.2,28.9,30,0.00,,---,0.00,VWS V14.01,2013-05-17 21:45:00,
2013-05-17 16:48:00,87.8,52.5,27.08,SSE,158,26.6,28.9,30,0.00,,---,0.00,VWS V14.01,2013-05-17 21:48:00,
2013-05-17 16:53:00,88.2,52.8,27.08,SSE,158,24.6,28.9,30,0.00,,---,0.00,VWS V14.01,2013-05-17 21:53:00,
2013-05-17 16:58:00,87.4,53.1,27.08,SSE,158,19.9,28.9,31,0.00,,---,0.00,VWS V14.01,2013-05-17 21:58:00,
2013-05-17 17:00:00,86.7,51.6,27.08,SSE,158,21.9,30.4,30,0.00,,---,0.00,VWS V14.01,2013-05-17 22:00:00,
2013-05-17 17:03:00,87.6,53.3,27.08,South,180,26.2,26.2,31,0.00,,---,0.00,VWS V14.01,2013-05-17 22:03:00,
2013-05-17 17:08:00,87.1,52.8,27.08,SSE,158,17.7,29.3,31,0.00,,---,0.00,VWS V14.01,2013-05-17 22:08:00,
2013-05-17 17:13:00,87.6,53.3,27.08,SE,135,11.0,29.3,31,0.00,,---,0.00,VWS V14.01,2013-05-17 22:13:00,
2013-05-17 17:15:00,86.5,52.3,27.08,SE,135,24.2,30.2,31,0.00,,---,0.00,VWS V14.01,2013-05-17 22:15:00,
2013-05-17 17:18:00,87.3,53.0,27.08,SSE,158,17.2,26.0,31,0.00,,---,0.00,VWS V14.01,2013-05-17 22:18:00,
2013-05-17 17:23:00,87.1,52.8,27.08,SE,135,22.8,28.4,31,0.00,,---,0.00,VWS V14.01,2013-05-17 22:23:00,
2013-05-17 17:28:00,87.1,52.8,27.08,SE,135,15.4,32.9,31,0.00,,---,0.00,VWS V14.01,2013-05-17 22:28:00,
2013-05-17 17:30:00,85.8,51.7,27.08,SSE,158,23.9,33.3,31,0.00,,---,0.00,VWS V14.01,2013-05-17 22:30:00,
2013-05-17 17:33:00,87.1,52.8,27.08,SE,135,19.7,28.9,31,0.00,,---,0.00,VWS V14.01,2013-05-17 22:33:00,
2013-05-17 17:38:00,87.3,52.1,27.08,SSE,158,23.3,28.9,30,0.00,,---,0.00,VWS V14.01,2013-05-17 22:38:00,
2013-05-17 17:43:00,87.1,51.9,27.08,SSE,158,21.9,28.9,30,0.00,,---,0.00,VWS V14.01,2013-05-17 22:43:00,
2013-05-17 17:45:00,85.6,51.6,27.08,SSE,158,21.0,30.4,31,0.00,,---,0.00,VWS V14.01,2013-05-17 22:45:00,
2013-05-17 17:48:00,87.3,53.0,27.08,SE,135,22.6,24.2,31,0.00,,---,0.00,VWS V14.01,2013-05-17 22:48:00,
2013-05-17 17:53:00,87.1,52.8,27.08,SE,135,16.8,28.6,31,0.00,,---,0.00,VWS V14.01,2013-05-17 22:53:00,
2013-05-17 17:59:00,86.9,52.7,27.08,SSE,158,23.0,30.4,31,0.00,,---,0.00,VWS V14.01,2013-05-17 22:59:00,
2013-05-17 18:00:00,84.9,50.9,27.08,SSE,158,19.0,31.8,31,0.00,,---,0.00,VWS V14.01,2013-05-17 23:00:00,
2013-05-17 18:04:00,86.7,51.6,27.08,SE,135,22.2,30.2,30,0.00,,---,0.00,VWS V14.01,2013-05-17 23:04:00,
2013-05-17 18:09:00,86.9,52.7,27.08,SSE,158,23.9,30.2,31,0.00,,---,0.00,VWS V14.01,2013-05-17 23:09:00,
2013-05-17 18:14:00,86.5,52.3,27.08,South,180,17.5,30.2,31,0.00,,---,0.00,VWS V14.01,2013-05-17 23:14:00,
2013-05-17 18:15:00,84.2,51.2,27.08,South,180,25.7,31.1,32,0.00,,---,0.00,VWS V14.01,2013-05-17 23:15:00,
2013-05-17 18:19:00,86.0,51.9,27.08,SE,135,19.9,26.0,31,0.00,,---,0.00,VWS V14.01,2013-05-17 23:19:00,
2013-05-17 18:24:00,86.0,51.9,27.08,SSE,158,26.4,33.3,31,0.00,,---,0.00,VWS V14.01,2013-05-17 23:24:00,
2013-05-17 18:29:00,85.8,51.7,27.08,SE,135,20.6,33.3,31,0.00,,---,0.00,VWS V14.01,2013-05-17 23:29:00,
2013-05-17 18:30:00,83.7,51.5,27.08,SSE,158,15.4,28.0,33,0.00,,---,0.00,VWS V14.01,2013-05-17 23:30:00,
2013-05-17 18:34:00,85.6,51.6,27.08,SE,135,22.4,30.4,31,0.00,,---,0.00,VWS V14.01,2013-05-17 23:34:00,
2013-05-17 18:39:00,85.6,52.4,27.08,SE,135,13.0,30.4,32,0.00,,---,0.00,VWS V14.01,2013-05-17 23:39:00,
2013-05-17 18:44:00,85.6,51.6,27.08,SSE,158,21.9,30.4,31,0.00,,---,0.00,VWS V14.01,2013-05-17 23:44:00,
2013-05-17 18:45:00,82.9,50.9,27.08,SE,135,15.4,26.4,33,0.00,,---,0.00,VWS V14.01,2013-05-17 23:45:00,
2013-05-17 18:49:00,85.3,51.2,27.08,SE,135,23.7,27.1,31,0.00,,---,0.00,VWS V14.01,2013-05-17 23:49:00,
2013-05-17 18:54:00,84.9,50.9,27.08,SSE,158,27.1,28.4,31,0.00,,---,0.00,VWS V14.01,2013-05-17 23:54:00,
2013-05-17 18:59:00,84.9,50.9,27.08,SE,135,22.8,31.8,31,0.00,,---,0.00,VWS V14.01,2013-05-17 23:59:00,
2013-05-17 19:00:00,82.2,51.1,27.08,SE,135,19.2,25.3,34,0.00,,---,0.00,VWS V14.01,2013-05-18 00:00:00,
2013-05-17 19:04:00,84.7,50.8,27.08,SE,135,26.2,31.1,31,0.00,,---,0.00,VWS V14.01,2013-05-18 00:04:00,
2013-05-17 19:09:00,84.6,51.5,27.08,SE,135,17.0,31.1,32,0.00,,---,0.00,VWS V14.01,2013-05-18 00:09:00,
2013-05-17 19:14:00,84.4,51.3,27.08,SE,135,21.3,31.1,32,0.00,,---,0.00,VWS V14.01,2013-05-18 00:14:00,
2013-05-17 19:15:00,81.0,50.8,27.08,SE,135,15.7,22.4,35,0.00,,---,0.00,VWS V14.01,2013-05-18 00:15:00,
2013-05-17 19:19:00,84.2,51.2,27.08,South,180,23.3,28.0,32,0.00,,---,0.00,VWS V14.01,2013-05-18 00:19:00,
2013-05-17 19:24:00,83.8,51.7,27.08,SE,135,16.1,28.0,33,0.00,,---,0.00,VWS V14.01,2013-05-18 00:24:00,
2013-05-17 19:29:00,83.7,51.5,27.08,SE,135,20.1,28.0,33,0.00,,---,0.00,VWS V14.01,2013-05-18 00:29:00,
2013-05-17 19:30:00,79.9,51.3,27.08,SSE,158,12.8,22.8,37,0.00,,---,0.00,VWS V14.01,2013-05-18 00:30:00,
2013-05-17 19:34:00,83.5,50.5,27.08,SE,135,20.6,25.1,32,0.00,,---,0.00,VWS V14.01,2013-05-18 00:34:00,
2013-05-17 19:39:00,83.3,51.2,27.08,SSE,158,15.2,25.7,33,0.00,,---,0.00,VWS V14.01,2013-05-18 00:39:00,
2013-05-17 19:44:00,83.1,51.1,27.08,SSE,158,18.1,26.4,33,0.00,,---,0.00,VWS V14.01,2013-05-18 00:44:00,
2013-05-17 19:45:00,78.1,52.5,27.08,SE,135,13.2,20.1,41,0.00,,---,0.00,VWS V14.01,2013-05-18 00:45:00,
2013-05-17 19:49:00,82.6,50.6,27.08,SSE,158,17.7,25.3,33,0.00,,---,0.00,VWS V14.01,2013-05-18 00:49:00,
2013-05-17 19:54:00,82.6,50.6,27.08,SE,135,12.1,25.3,33,0.00,,---,0.00,VWS V14.01,2013-05-18 00:54:00,
2013-05-17 19:59:00,82.2,51.1,27.08,SSE,158,15.2,25.3,34,0.00,,---,0.00,VWS V14.01,2013-05-18 00:59:00,
2013-05-17 20:00:00,76.8,52.7,27.08,SE,135,15.2,17.0,43,0.00,,---,0.00,VWS V14.01,2013-05-18 01:00:00,
2013-05-17 20:04:00,82.0,50.9,27.08,SE,135,13.4,19.2,34,0.00,,---,0.00,VWS V14.01,2013-05-18 01:04:00,
2013-05-17 20:09:00,81.7,50.6,27.08,South,180,12.3,20.1,34,0.00,,---,0.00,VWS V14.01,2013-05-18 01:09:00,
2013-05-17 20:14:00,81.1,50.9,27.08,SE,135,18.6,20.4,35,0.00,,---,0.00,VWS V14.01,2013-05-18 01:14:00,
2013-05-17 20:15:00,76.3,53.4,27.08,SE,135,16.1,19.7,45,0.00,,---,0.00,VWS V14.01,2013-05-18 01:15:00,
2013-05-17 20:19:00,80.8,50.6,27.08,SE,135,17.0,22.8,35,0.00,,---,0.00,VWS V14.01,2013-05-18 01:19:00,
2013-05-17 20:24:00,80.6,51.2,27.08,SSE,158,13.2,22.8,36,0.00,,---,0.00,VWS V14.01,2013-05-18 01:24:00,
2013-05-17 20:29:00,80.1,51.5,27.08,SE,135,14.5,22.8,37,0.00,,---,0.00,VWS V14.01,2013-05-18 01:29:00,
2013-05-17 20:30:00,75.0,56.8,27.08,SE,135,9.8,17.5,53,0.00,,---,0.00,VWS V14.01,2013-05-18 01:30:00,
2013-05-17 20:34:00,79.3,51.5,27.08,SE,135,14.8,18.6,38,0.00,,---,0.00,VWS V14.01,2013-05-18 01:34:00,
2013-05-17 20:39:00,79.0,51.9,27.08,SE,135,8.5,20.1,39,0.00,,---,0.00,VWS V14.01,2013-05-18 01:39:00,
2013-05-17 20:44:00,78.3,52.7,27.08,SE,135,13.6,20.1,41,0.00,,---,0.00,VWS V14.01,2013-05-18 01:44:00,
2013-05-17 20:45:00,74.1,59.4,27.08,SE,135,13.6,15.7,60,0.00,,---,0.00,VWS V14.01,2013-05-18 01:45:00,
2013-05-17 20:49:00,78.1,52.5,27.08,SE,135,10.7,17.0,41,0.00,,---,0.00,VWS V14.01,2013-05-18 01:49:00,
2013-05-17 20:54:00,77.2,52.3,27.08,SE,135,15.4,17.0,42,0.00,,---,0.00,VWS V14.01,2013-05-18 01:54:00,
2013-05-17 20:59:00,77.2,52.3,27.08,SE,135,15.9,17.0,42,0.00,,---,0.00,VWS V14.01,2013-05-18 01:59:00,
2013-05-17 21:00:00,73.4,61.8,27.08,SE,135,13.2,17.0,67,0.00,,---,0.00,VWS V14.01,2013-05-18 02:00:00,
2013-05-17 21:04:00,76.6,53.1,27.08,South,180,17.2,17.7,44,0.00,,---,0.00,VWS V14.01,2013-05-18 02:04:00,
2013-05-17 21:09:00,76.5,53.0,27.08,SE,135,11.0,17.7,44,0.00,,---,0.00,VWS V14.01,2013-05-18 02:09:00,
2013-05-17 21:14:00,76.3,53.4,27.08,SE,135,12.5,19.7,45,0.00,,---,0.00,VWS V14.01,2013-05-18 02:14:00,
2013-05-17 21:15:00,72.5,62.6,27.08,SE,135,16.8,17.2,71,0.00,,---,0.00,VWS V14.01,2013-05-18 02:15:00,
2013-05-17 21:19:00,75.7,54.1,27.08,SE,135,17.5,17.5,47,0.00,,---,0.00,VWS V14.01,2013-05-18 02:19:00,
2013-05-17 21:24:00,75.7,54.7,27.08,SE,135,9.8,17.5,48,0.00,,---,0.00,VWS V14.01,2013-05-18 02:24:00,
2013-05-17 21:29:00,75.0,56.2,27.08,SE,135,10.7,17.5,52,0.00,,---,0.00,VWS V14.01,2013-05-18 02:29:00,
2013-05-17 21:34:00,75.0,56.8,27.08,South,180,14.8,14.8,53,0.00,,---,0.00,VWS V14.01,2013-05-18 02:34:00,
2013-05-17 21:39:00,74.5,59.7,27.08,SE,135,7.6,15.7,60,0.00,,---,0.00,VWS V14.01,2013-05-18 02:39:00,
2013-05-17 21:44:00,74.1,59.4,27.08,SE,135,10.5,15.7,60,0.00,,---,0.00,VWS V14.01,2013-05-18 02:44:00,
2013-05-17 21:45:00,70.5,63.0,27.08,South,180,11.2,22.2,77,0.00,,---,0.00,VWS V14.01,2013-05-18 02:45:00,
2013-05-17 21:49:00,73.8,60.4,27.08,SE,135,11.2,16.8,63,0.00,,---,0.00,VWS V14.01,2013-05-18 02:49:00,
2013-05-17 21:54:00,73.6,60.7,27.08,SE,135,10.1,16.8,64,0.00,,---,0.00,VWS V14.01,2013-05-18 02:54:00,
2013-05-17 21:59:00,73.4,61.8,27.08,SE,135,12.5,17.0,67,0.00,,---,0.00,VWS V14.01,2013-05-18 02:59:00,
2013-05-17 22:00:00,70.0,63.2,27.08,SE,135,10.5,11.0,79,0.00,,---,0.00,VWS V14.01,2013-05-18 03:00:00,
2013-05-17 22:01:00,69.8,63.4,27.08,SE,135,11.2,11.2,80,0.00,,---,0.00,VWS V14.01,2013-05-18 03:01:00,
2013-05-17 22:02:00,69.8,63.4,27.08,SE,135,9.6,11.2,80,0.00,,---,0.00,VWS V14.01,2013-05-18 03:02:00,
2013-05-17 22:03:00,69.8,63.4,27.08,SE,135,10.5,11.2,80,0.00,,---,0.00,VWS V14.01,2013-05-18 03:03:00,
2013-05-17 22:04:00,69.8,63.4,27.08,SE,135,10.7,11.2,80,0.00,,---,0.00,VWS V14.01,2013-05-18 03:04:00,
2013-05-17 22:05:00,73.0,61.9,27.08,SE,135,12.8,15.2,68,0.00,,---,0.00,VWS V14.01,2013-05-18 03:05:00,
2013-05-17 22:10:00,72.9,62.5,27.08,SE,135,13.0,17.2,70,0.00,,---,0.00,VWS V14.01,2013-05-18 03:10:00,
2013-05-17 22:15:00,72.7,62.7,27.08,SE,135,8.7,17.2,71,0.00,,---,0.00,VWS V14.01,2013-05-18 03:15:00,
2013-05-17 22:20:00,72.3,62.8,27.08,SE,135,15.4,16.8,72,0.00,,---,0.00,VWS V14.01,2013-05-18 03:20:00,
2013-05-17 22:25:00,72.0,62.5,27.08,SE,135,9.8,22.2,72,0.00,,---,0.00,VWS V14.01,2013-05-18 03:25:00,
2013-05-17 22:30:00,71.6,62.5,27.08,SE,135,7.6,22.2,73,0.00,,---,0.00,VWS V14.01,2013-05-18 03:30:00,
2013-05-17 22:35:00,71.1,63.1,27.08,SSE,158,13.0,22.2,76,0.00,,---,0.00,VWS V14.01,2013-05-18 03:35:00,
2013-05-17 22:40:00,70.9,63.0,27.08,SE,135,11.0,22.2,76,0.00,,---,0.00,VWS V14.01,2013-05-18 03:40:00,
2013-05-17 22:45:00,70.5,63.0,27.08,SE,135,11.0,22.2,77,0.00,,---,0.00,VWS V14.01,2013-05-18 03:45:00,
2013-05-17 22:50:00,70.3,63.2,27.08,South,180,13.0,13.4,78,0.00,,---,0.00,VWS V14.01,2013-05-18 03:50:00,
2013-05-17 22:55:00,70.2,63.3,27.08,SSE,158,12.5,17.0,79,0.00,,---,0.00,VWS V14.01,2013-05-18 03:55:00,
2013-05-17 23:00:00,70.0,63.2,27.08,SE,135,10.3,17.0,79,0.00,,---,0.00,VWS V14.01,2013-05-18 04:00:00,
2013-05-17 23:03:00,69.8,63.4,27.08,SE,135,10.7,11.2,80,0.00,,---,0.00,VWS V14.01,2013-05-18 04:03:00,
2013-05-17 23:08:00,69.4,63.4,27.08,SE,135,12.5,13.6,81,0.00,,---,0.00,VWS V14.01,2013-05-18 04:08:00,
2013-05-17 23:13:00,69.3,63.2,27.08,SE,135,8.5,13.6,81,0.00,,---,0.00,VWS V14.01,2013-05-18 04:13:00,
2013-05-17 23:15:00,68.7,64.4,27.08,SSE,158,10.3,20.4,86,0.00,,---,0.00,VWS V14.01,2013-05-18 04:15:00,
2013-05-17 23:18:00,69.1,63.4,27.08,SE,135,5.6,11.0,82,0.00,,---,0.00,VWS V14.01,2013-05-18 04:18:00,
2013-05-17 23:23:00,68.9,63.2,27.08,SE,135,10.3,13.2,82,0.00,,---,0.00,VWS V14.01,2013-05-18 04:23:00,
2013-05-17 23:28:00,68.9,63.5,27.08,SE,135,6.3,13.2,83,0.00,,---,0.00,VWS V14.01,2013-05-18 04:28:00,
2013-05-17 23:30:00,68.5,64.2,27.08,SSE,158,13.6,18.1,86,0.00,,---,0.00,VWS V14.01,2013-05-18 04:30:00,
2013-05-17 23:33:00,68.7,63.3,27.08,SE,135,9.8,12.5,83,0.00,,---,0.00,VWS V14.01,2013-05-18 04:33:00,
2013-05-17 23:38:00,68.7,63.7,27.08,SE,135,10.5,12.5,84,0.00,,---,0.00,VWS V14.01,2013-05-18 04:38:00,
2013-05-17 23:43:00,68.7,64.0,27.08,SE,135,12.3,12.5,85,0.00,,---,0.00,VWS V14.01,2013-05-18 04:43:00,
2013-05-17 23:45:00,68.4,64.3,27.08,South,180,13.0,15.4,87,0.00,,---,0.00,VWS V14.01,2013-05-18 04:45:00,
2013-05-17 23:48:00,68.7,64.0,27.08,SE,135,10.3,12.3,85,0.00,,---,0.00,VWS V14.01,2013-05-18 04:48:00,
2013-05-17 23:53:00,68.7,64.0,27.08,SE,135,10.5,15.4,85,0.00,,---,0.00,VWS V14.01,2013-05-18 04:53:00,
2013-05-17 23:58:00,68.7,64.0,27.08,SE,135,7.8,15.4,85,0.00,,---,0.00,VWS V14.01,2013-05-18 04:58:00,